Home > Weather > Tuscaloosa > Past weeks

Flag for USA Past Weather in Tuscaloosa, Alabama, USA — Yesterday and Last 2 Weeks

Now
88 °F

Sunny.


Feels Like: 87 °F
Forecast: 63 / 90 °F
Wind: 10 mph from South

Location: Tuscaloosa Municipal Airport

Current Time: May 26, 2016 at 5:33:27 PM

Latest Report: May 26, 2016 at 4:53 PM


Visibility: 10 mi

Pressure: 30.02 "Hg

Humidity: 38%

Dew Point: 59 °F

Location of TuscaloosaLocation

Past Weather in Tuscaloosa — Graph

°F

Tuscaloosa Temperature Yesterday

Maximum temperature yesterday: 87 °F (at 2:53 PM)
Minimum temperature yesterday: 62 °F (at 5:53 AM)
Average temperature yesterday: 75 °F

High & Low Weather Summary for the Past Weeks

 TemperatureHumidityPressure
High90 °F (May 26, 3:53 PM)100% (May 12, 2:53 AM)30.22 "Hg (May 12, 2:53 AM)
Low51 °F (May 14, 5:53 AM)29% (May 23, 1:53 PM)29.89 "Hg (May 20, 4:53 AM)
Average70 °F70%30.05 "Hg
* Reported May 11 3:53 PM — May 26 3:53 PM, Tuscaloosa, Weather by CustomWeather, © 2016

Note: Actual official high and low records may vary slightly from our data, if they occured in-between our weather recording intervals... More about our weather records

Advertising

Tuscaloosa Weather History for the Previous 24 Hours

Scroll right to see more
 ConditionsComfort  
Time TempWeatherWind HumidityBarometerVisibility
3:53 PM
Thu, May 26
90 °FSunny.12 mph38%30.02 "Hg10 mi
2:53 PM89 °FSunny.10 mph38%30.03 "Hg10 mi
1:53 PM89 °FSunny.9 mph39%30.06 "Hg10 mi
12:53 PM88 °FSunny.10 mph36%30.09 "Hg10 mi
11:53 AM86 °FSunny.8 mph43%30.11 "Hg10 mi
10:53 AM83 °FSunny.5 mph51%30.12 "Hg10 mi
9:53 AM80 °FSunny.6 mph56%30.14 "Hg10 mi
8:53 AM76 °FSunny.5 mph67%30.14 "Hg9 mi
7:53 AM72 °FSunny.6 mph76%30.15 "Hg8 mi
6:53 AM66 °FFog.No wind93%30.15 "Hg6 mi
5:53 AM62 °FFog.No wind100%30.12 "Hg6 mi
4:53 AM63 °FClear.No wind97%30.12 "Hg7 mi
3:53 AM64 °FClear.3 mph97%30.10 "Hg8 mi
2:53 AM64 °FClear.No wind94%30.10 "Hg9 mi
1:53 AM66 °FClear.No wind90%30.10 "Hg9 mi
12:53 AM67 °FClear.No wind90%30.10 "Hg9 mi
11:53 PM
Wed, May 25
68 °FClear.No wind84%30.12 "Hg10 mi
10:53 PM71 °FClear.No wind73%30.13 "Hg10 mi
9:53 PM74 °FClear.5 mph62%30.15 "Hg10 mi
8:53 PM77 °FClear.7 mph54%30.14 "Hg10 mi
7:53 PM80 °FSunny.6 mph47%30.14 "Hg10 mi
6:53 PM83 °FSunny.7 mph43%30.14 "Hg10 mi
5:53 PM84 °FSunny.10 mph41%30.11 "Hg10 mi
Weather by CustomWeather, © 2016

See weather overviewHow to use our weather pages